User: anonymous   Login
Location: UBC Liquid-Mirror Observatory
(49.2876°N, 122.5728°W)
Time: 12:11:49
(UTC-08:00)
Language:

Cosmos 1315 - Orbit

View from above orbital plane
View from above orbital plane
View from above satellite
View from above satellite

Ground track
Ground track

The orbit data is extracted from the following two-line orbital elements,

1 12903U 81103A   15027.56294906  .00031562  00000-0  36351-3 0  4111
2 12903 081.1272 232.5969 0001833 222.0368 194.7374 15.61808636825130
Epoch (UTC): 27 January 2015 13:30:38
Eccentricity: 0.0001833
inclination: 81.1272°
perigee height: 381 km
apogee height: 383 km
right ascension of ascending node: 232.5969°
argument of perigee: 222.0368°
revolutions per day: 15.61808636
mean anomaly at epoch: 194.7374°
orbit number at epoch: 82513

The dashed part of the orbit path shows where the satellite is in the earth's shadow,  

DLR